EN

Hourly Weather Luderitz

Today, 14 May, Friday

Time Temperature Precipitation Wind Pressure Humidity
00:00 +24°C° 0 mm 1 mps 756 mmHg 24%
01:00 +24°C° 0 mm 1 mps 756 mmHg 23%
02:00 +23°C° 0 mm 2 mps 756 mmHg 28%
03:00 +20°C° 0 mm 2 mps 756 mmHg 32%
04:00 +19°C° 0 mm 2 mps 756 mmHg 36%
05:00 +20°C° 0 mm 2 mps 756 mmHg 32%
06:00 +21°C° 0 mm 2 mps 756 mmHg 29%
07:00 +23°C° 0 mm 2 mps 757 mmHg 25%
08:00 +25°C° 0 mm 2 mps 757 mmHg 22%
09:00 +28°C° 0 mm 2 mps 757 mmHg 19%
10:00 +30°C° 0 mm 2 mps 757 mmHg 16%
11:00 +30°C° 0 mm 2 mps 757 mmHg 17%
12:00 +31°C° 0 mm 2 mps 756 mmHg 17%
13:00 +32°C° 0 mm 2 mps 756 mmHg 17%
14:00 +30°C° 0 mm 2 mps 756 mmHg 21%
15:00 +29°C° 0 mm 2 mps 756 mmHg 24%
16:00 +28°C° 0 mm 1 mps 755 mmHg 27%
17:00 +26°C° 0 mm 1 mps 756 mmHg 32%
18:00 +25°C° 0 mm 1 mps 756 mmHg 36%
19:00 +23°C° 0 mm 1 mps 757 mmHg 40%
20:00 +22°C° 0 mm 1 mps 757 mmHg 42%
21:00 +22°C° 0 mm 1 mps 757 mmHg 43%
22:00 +21°C° 0 mm 1 mps 757 mmHg 44%
23:00 +21°C° 0 mm 1 mps 757 mmHg 48%

Tomorrow, 15 May, Saturday

Time Temperature Precipitation Wind Pressure Humidity
00:00 +20°C° 0 mm 1 mps 757 mmHg 52%
01:00 +20°C° 0 mm 1 mps 757 mmHg 55%
02:00 +18°C° 0 mm 0 mps 757 mmHg 55%
03:00 +17°C° 0 mm 0 mps 757 mmHg 55%
04:00 +17°C° 0 mm 0 mps 757 mmHg 55%
05:00 +17°C° 0 mm 0 mps 757 mmHg 54%
06:00 +18°C° 0 mm 0 mps 757 mmHg 52%
07:00 +20°C° 0 mm 1 mps 757 mmHg 51%
08:00 +22°C° 0 mm 1 mps 758 mmHg 48%
09:00 +23°C° 0 mm 1 mps 758 mmHg 46%
10:00 +25°C° 0 mm 1 mps 758 mmHg 44%
11:00 +25°C° 0 mm 2 mps 758 mmHg 46%
12:00 +26°C° 0 mm 3 mps 757 mmHg 48%
13:00 +26°C° 0 mm 3 mps 757 mmHg 51%
14:00 +25°C° 0 mm 3 mps 757 mmHg 57%
15:00 +24°C° 0 mm 3 mps 757 mmHg 64%
16:00 +22°C° 0 mm 3 mps 757 mmHg 71%
17:00 +21°C° 0 mm 2 mps 758 mmHg 77%
18:00 +20°C° 0 mm 2 mps 758 mmHg 83%
19:00 +20°C° 0 mm 1 mps 759 mmHg 89%
20:00 +20°C° 0 mm 1 mps 759 mmHg 88%
21:00 +19°C° 0 mm 1 mps 759 mmHg 88%
22:00 +19°C° 0 mm 1 mps 759 mmHg 88%
23:00 +19°C° 0 mm 1 mps 759 mmHg 87%

Day after tomorrow, 16 May, Sunday

Time Temperature Precipitation Wind Pressure Humidity
00:00 +19°C° 0 mm 1 mps 759 mmHg 86%
01:00 +18°C° 0 mm 1 mps 759 mmHg 85%
02:00 +17°C° 0 mm 2 mps 759 mmHg 84%
03:00 +17°C° 0 mm 2 mps 759 mmHg 84%
04:00 +17°C° 0 mm 2 mps 759 mmHg 83%
05:00 +17°C° 0 mm 2 mps 759 mmHg 81%
06:00 +17°C° 0 mm 2 mps 759 mmHg 80%
07:00 +17°C° 0 mm 3 mps 759 mmHg 78%
08:00 +19°C° 0 mm 3 mps 759 mmHg 68%
09:00 +21°C° 0 mm 3 mps 760 mmHg 58%
10:00 +23°C° 0 mm 4 mps 760 mmHg 49%
11:00 +25°C° 0 mm 4 mps 759 mmHg 48%
12:00 +25°C° 0 mm 5 mps 759 mmHg 47%
13:00 +26°C° 0 mm 5 mps 758 mmHg 46%
14:00 +24°C° 0 mm 6 mps 758 mmHg 51%
15:00 +23°C° 0 mm 6 mps 758 mmHg 55%
16:00 +22°C° 0 mm 6 mps 758 mmHg 60%
17:00 +21°C° 0 mm 6 mps 758 mmHg 67%
18:00 +19°C° 0 mm 6 mps 759 mmHg 74%
19:00 +17°C° 0 mm 5 mps 759 mmHg 80%
20:00 +17°C° 0 mm 5 mps 760 mmHg 80%
21:00 +16°C° 0 mm 5 mps 760 mmHg 80%
22:00 +16°C° 0 mm 5 mps 760 mmHg 80%
23:00 +16°C° 0 mm 5 mps 760 mmHg 80%

17 May, Monday

Time Temperature Precipitation Wind Pressure Humidity
00:00 +16°C° 0 mm 5 mps 760 mmHg 80%
01:00 +15°C° 0 mm 4 mps 759 mmHg 79%
02:00 +15°C° 0 mm 4 mps 759 mmHg 79%
03:00 +15°C° 0 mm 4 mps 759 mmHg 79%
04:00 +15°C° 0 mm 5 mps 759 mmHg 78%
05:00 +15°C° 0 mm 5 mps 759 mmHg 76%
06:00 +15°C° 0 mm 4 mps 759 mmHg 74%
07:00 +15°C° 0 mm 4 mps 759 mmHg 71%
08:00 +19°C° 0 mm 5 mps 759 mmHg 60%
09:00 +21°C° 0 mm 5 mps 759 mmHg 49%
10:00 +25°C° 0 mm 5 mps 760 mmHg 38%
11:00 +26°C° 0 mm 6 mps 759 mmHg 35%
12:00 +27°C° 0 mm 6 mps 758 mmHg 32%
13:00 +28°C° 0 mm 7 mps 758 mmHg 28%
14:00 +27°C° 0 mm 7 mps 757 mmHg 32%
15:00 +26°C° 0 mm 7 mps 757 mmHg 35%
16:00 +24°C° 0 mm 7 mps 757 mmHg 38%
17:00 +22°C° 0 mm 7 mps 757 mmHg 44%
18:00 +20°C° 0 mm 6 mps 758 mmHg 49%
19:00 +19°C° 0 mm 5 mps 758 mmHg 55%
20:00 +19°C° 0 mm 5 mps 758 mmHg 51%
21:00 +19°C° 0 mm 5 mps 758 mmHg 47%
22:00 +19°C° 0 mm 4 mps 758 mmHg 44%
23:00 +18°C° 0 mm 4 mps 758 mmHg 44%

18 May, Tuesday

Time Temperature Precipitation Wind Pressure Humidity
00:00 +18°C° 0 mm 4 mps 757 mmHg 45%
01:00 +18°C° 0 mm 4 mps 757 mmHg 45%
02:00 +18°C° 0 mm 4 mps 757 mmHg 43%
03:00 +18°C° 0 mm 4 mps 757 mmHg 41%
04:00 +18°C° 0 mm 4 mps 757 mmHg 39%
05:00 +18°C° 0 mm 4 mps 757 mmHg 35%
06:00 +18°C° 0 mm 4 mps 757 mmHg 32%
07:00 +18°C° 0 mm 4 mps 757 mmHg 28%
08:00 +22°C° 0 mm 3 mps 757 mmHg 23%
09:00 +26°C° 0 mm 3 mps 757 mmHg 18%
10:00 +29°C° 0 mm 3 mps 757 mmHg 13%
11:00 +30°C° 0 mm 4 mps 757 mmHg 15%
12:00 +30°C° 0 mm 5 mps 756 mmHg 18%
13:00 +30°C° 0 mm 6 mps 756 mmHg 21%
14:00 +29°C° 0 mm 5 mps 756 mmHg 24%
15:00 +29°C° 0 mm 5 mps 756 mmHg 26%
16:00 +28°C° 0 mm 5 mps 755 mmHg 28%
17:00 +25°C° 0 mm 4 mps 756 mmHg 40%
18:00 +21°C° 0 mm 3 mps 757 mmHg 51%
19:00 +18°C° 0 mm 2 mps 757 mmHg 63%
20:00 +18°C° 0 mm 2 mps 757 mmHg 59%
21:00 +18°C° 0 mm 2 mps 757 mmHg 56%
22:00 +18°C° 0 mm 2 mps 757 mmHg 52%
23:00 +18°C° 0 mm 2 mps 757 mmHg 55%

19 May, Wednesday

Time Temperature Precipitation Wind Pressure Humidity
00:00 +17°C° 0 mm 2 mps 757 mmHg 57%
01:00 +17°C° 0 mm 3 mps 757 mmHg 60%
02:00 +17°C° 0 mm 2 mps 757 mmHg 57%
03:00 +17°C° 0 mm 2 mps 756 mmHg 54%
04:00 +18°C° 0 mm 1 mps 756 mmHg 52%
05:00 +17°C° 0 mm 2 mps 757 mmHg 54%
06:00 +17°C° 0 mm 2 mps 757 mmHg 56%
07:00 +17°C° 0 mm 2 mps 758 mmHg 59%
08:00 +18°C° 0 mm 2 mps 758 mmHg 54%
09:00 +20°C° 0 mm 2 mps 758 mmHg 49%
10:00 +23°C° 0 mm 2 mps 759 mmHg 44%
11:00 +23°C° 0 mm 2 mps 758 mmHg 43%
12:00 +23°C° 0 mm 2 mps 758 mmHg 42%
13:00 +24°C° 0 mm 2 mps 758 mmHg 41%
14:00 +23°C° 0 mm 2 mps 758 mmHg 43%
15:00 +21°C° 0 mm 2 mps 758 mmHg 46%
16:00 +21°C° 0 mm 1 mps 758 mmHg 48%
17:00 +20°C° 0 mm 1 mps 758 mmHg 55%
18:00 +19°C° 0 mm 1 mps 758 mmHg 61%
19:00 +16°C° 0 mm 1 mps 759 mmHg 67%
20:00 +16°C° 0 mm 1 mps 759 mmHg 69%
21:00 +14°C° 0 mm 0 mps 759 mmHg 70%
22:00 +14°C° 0 mm 0 mps 759 mmHg 72%
23:00 +14°C° 0 mm 1 mps 759 mmHg 72%
Show more